TIANMU-1 18

Last updated on Wed May 14 2025 00:02:20 GMT+0000 (Coordinated Universal Time)

1 58703U 24004D 25133.59151194 .00005427 00000+0 24259-3 0 9994 2 58703 97.4639 316.3637 0004419 325.9761 34.1190 15.21733735 74908
UTC large
Height (km)
Speed (km/s)
/
Latitude / Longitude
Inclination (degrees)
Orbital Period (minutes)
Azimuth
Elevation
Range (km)
Doppler Factor

Next 0 passes for location: London (51.5072 / 0.1276)

Sorry there are no passes over London.